| time (UTC) | temp F | wind direction | speed MPH | gust MPH | rain 1hr in | rain 24hr in | rain mn in | humidity % | barometer mb |
| 20260510014951 | 51 | 317 | 5.0 | 11.0 | 0.00 | 0.16 | 0.16 | 42 | 1013.1 |
| 20260510014451 | 51 | 327 | 5.0 | 11.0 | 0.00 | 0.16 | 0.16 | 42 | 1013.0 |
| 20260510013949 | 51 | 315 | 4.0 | 11.0 | 0.00 | 0.16 | 0.16 | 42 | 1012.7 |
| 20260510013448 | 51 | 304 | 4.0 | 9.0 | 0.00 | 0.16 | 0.16 | 41 | 1012.7 |
| 20260510012949 | 51 | 2 | 6.0 | 14.0 | 0.00 | 0.16 | 0.16 | 44 | 1012.6 |
| 20260510012448 | 52 | 329 | 5.0 | 14.0 | 0.00 | 0.16 | 0.16 | 41 | 1012.5 |
| 20260510011942 | 52 | 323 | 5.0 | 13.0 | 0.00 | 0.16 | 0.16 | 43 | 1012.4 |
| 20260510011435 | 52 | 347 | 6.0 | 13.0 | 0.00 | 0.16 | 0.16 | 40 | 1012.3 |
| 20260510010930 | 52 | 326 | 6.0 | 16.0 | 0.00 | 0.16 | 0.16 | 39 | 1012.1 |
| 20260510010424 | 52 | 5 | 7.0 | 16.0 | 0.00 | 0.16 | 0.16 | 42 | 1012.0 |
| 20260510010148 | 53 | 324 | 10.0 | 16.0 | 0.00 | 0.16 | 0.16 | 43 | 1012.0 |
| 20260510005645 | 53 | 340 | 11.0 | 18.0 | 0.00 | 0.16 | 0.16 | 43 | 1011.8 |
| 20260510004905 | 53 | 316 | 12.0 | 19.0 | 0.00 | 0.16 | 0.16 | 41 | 1011.8 |
| 20260510004359 | 53 | 3 | 11.0 | 19.0 | 0.00 | 0.16 | 0.16 | 44 | 1011.6 |
| 20260510003853 | 53 | 33 | 8.0 | 19.0 | 0.00 | 0.16 | 0.16 | 45 | 1011.6 |
| 20260510003348 | 54 | 330 | 8.0 | 13.0 | 0.00 | 0.16 | 0.16 | 40 | 1011.5 |
| 20260510002842 | 54 | 347 | 9.0 | 16.0 | 0.00 | 0.16 | 0.16 | 39 | 1011.4 |
| 20260510002336 | 54 | 352 | 10.0 | 19.0 | 0.00 | 0.16 | 0.16 | 43 | 1011.3 |
| 20260510001830 | 54 | 318 | 10.0 | 19.0 | 0.00 | 0.16 | 0.16 | 37 | 1011.4 |
| 20260510001323 | 54 | 326 | 10.0 | 22.0 | 0.00 | 0.16 | 0.16 | 43 | 1011.3 |
| 20260510001049 | 55 | 342 | 10.0 | 22.0 | 0.00 | 0.16 | 0.16 | 39 | 1011.2 |
| 20260510000312 | 55 | 293 | 9.0 | 20.0 | 0.00 | 0.16 | 0.16 | 37 | 1011.2 |
| 20260510000038 | 55 | 304 | 8.0 | 16.0 | 0.00 | 0.16 | 0.16 | 38 | 1011.1 |
| 20260509235300 | 55 | 300 | 7.0 | 14.0 | 0.00 | 0.16 | 0.16 | 37 | 1011.0 |
| 20260509235026 | 55 | 347 | 8.0 | 14.0 | 0.00 | 0.16 | 0.16 | 35 | 1010.9 |
| 20260509234248 | 55 | 349 | 8.0 | 14.0 | 0.00 | 0.16 | 0.16 | 37 | 1010.8 |
| 20260509233742 | 55 | 338 | 6.0 | 14.0 | 0.00 | 0.16 | 0.16 | 39 | 1010.8 |
| 20260509233507 | 55 | 343 | 8.0 | 17.0 | 0.00 | 0.16 | 0.16 | 38 | 1010.8 |
| 20260509232730 | 55 | 328 | 11.0 | 19.0 | 0.00 | 0.16 | 0.16 | 43 | 1010.8 |
| 20260509232224 | 55 | 343 | 8.0 | 16.0 | 0.00 | 0.16 | 0.16 | 38 | 1010.7 |
| 20260509231718 | 56 | 308 | 6.0 | 16.0 | 0.00 | 0.16 | 0.16 | 37 | 1010.7 |
| 20260509231212 | 56 | 330 | 5.0 | 16.0 | 0.00 | 0.16 | 0.16 | 33 | 1010.6 |
| 20260509230706 | 56 | 314 | 5.0 | 14.0 | 0.00 | 0.16 | 0.16 | 33 | 1010.5 |
| 20260509230200 | 56 | 317 | 5.0 | 13.0 | 0.00 | 0.16 | 0.16 | 35 | 1010.5 |
| 20260509225925 | 56 | 350 | 5.0 | 11.0 | 0.00 | 0.16 | 0.16 | 35 | 1010.5 |
| 20260509225148 | 56 | 320 | 5.0 | 11.0 | 0.00 | 0.16 | 0.16 | 34 | 1010.5 |
| 20260509224912 | 57 | 248 | 5.0 | 11.0 | 0.00 | 0.16 | 0.16 | 33 | 1010.5 |
| 20260509224136 | 57 | 300 | 5.0 | 13.0 | 0.00 | 0.16 | 0.16 | 33 | 1010.4 |
| 20260509223902 | 57 | 342 | 5.0 | 13.0 | 0.00 | 0.16 | 0.16 | 33 | 1010.4 |
| 20260509223124 | 57 | 319 | 6.0 | 13.0 | 0.00 | 0.16 | 0.16 | 33 | 1010.3 |
| 20260509222849 | 57 | 326 | 6.0 | 17.0 | 0.00 | 0.16 | 0.16 | 34 | 1010.2 |
| 20260509222342 | 56 | 327 | 6.0 | 17.0 | 0.00 | 0.16 | 0.16 | 36 | 1010.2 |
| 20260509221606 | 55 | 326 | 6.0 | 16.0 | 0.00 | 0.16 | 0.16 | 34 | 1010.3 |
| 20260509221100 | 56 | 291 | 6.0 | 16.0 | 0.00 | 0.16 | 0.16 | 34 | 1010.1 |
| 20260509220553 | 55 | 314 | 3.0 | 10.0 | 0.00 | 0.16 | 0.16 | 34 | 1010.1 |
| 20260509220048 | 55 | 311 | 5.0 | 18.0 | 0.00 | 0.16 | 0.16 | 35 | 1010.0 |
| 20260509215542 | 55 | 355 | 10.0 | 21.0 | 0.00 | 0.16 | 0.16 | 34 | 1010.0 |
| 20260509215036 | 55 | 334 | 11.0 | 22.0 | 0.00 | 0.16 | 0.16 | 36 | 1010.0 |
| 20260509214530 | 55 | 321 | 8.0 | 22.0 | 0.00 | 0.16 | 0.16 | 36 | 1010.1 |
| 20260509214023 | 55 | 323 | 8.0 | 20.0 | 0.00 | 0.16 | 0.16 | 35 | 1010.0 |
| 20260509213518 | 56 | 325 | 12.0 | 19.0 | 0.00 | 0.16 | 0.16 | 39 | 1009.9 |
| 20260509213012 | 55 | 307 | 9.0 | 19.0 | 0.00 | 0.16 | 0.16 | 42 | 1010.0 |
| 20260509212506 | 56 | 5 | 7.0 | 17.0 | 0.00 | 0.16 | 0.16 | 35 | 1009.9 |
| 20260509212231 | 56 | 349 | 7.0 | 17.0 | 0.00 | 0.16 | 0.16 | 34 | 1009.8 |
| 20260509211454 | 56 | 356 | 7.0 | 17.0 | 0.00 | 0.16 | 0.16 | 35 | 1009.9 |
| 20260509210948 | 56 | 339 | 8.0 | 26.0 | 0.00 | 0.16 | 0.16 | 35 | 1009.6 |
| 20260509210442 | 56 | 340 | 8.0 | 26.0 | 0.00 | 0.16 | 0.16 | 37 | 1009.5 |
| 20260509205936 | 55 | 338 | 7.0 | 15.0 | 0.00 | 0.16 | 0.16 | 33 | 1009.6 |
| 20260509205700 | 56 | 3 | 7.0 | 16.0 | 0.00 | 0.16 | 0.16 | 33 | 1009.9 |
| 20260509204924 | 56 | 307 | 8.0 | 18.0 | 0.00 | 0.16 | 0.16 | 38 | 1009.6 |
| 20260509204418 | 55 | 345 | 9.0 | 22.0 | 0.00 | 0.16 | 0.16 | 34 | 1009.8 |
| 20260509203911 | 56 | 273 | 8.0 | 22.0 | 0.00 | 0.16 | 0.16 | 35 | 1009.8 |
| 20260509203411 | 56 | 33 | 6.0 | 20.0 | 0.00 | 0.16 | 0.16 | 35 | 1009.5 |
| 20260509202911 | 56 | 283 | 8.0 | 20.0 | 0.00 | 0.16 | 0.16 | 37 | 1009.4 |
| 20260509202412 | 55 | 333 | 8.0 | 17.0 | 0.00 | 0.16 | 0.16 | 36 | 1009.5 |
| 20260509201911 | 56 | 345 | 7.0 | 20.0 | 0.00 | 0.16 | 0.16 | 38 | 1009.6 |
| 20260509201411 | 55 | 307 | 8.0 | 20.0 | 0.00 | 0.16 | 0.16 | 36 | 1009.4 |
| 20260509200912 | 56 | 348 | 6.0 | 18.0 | 0.00 | 0.16 | 0.16 | 42 | 1009.4 |
| 20260509200642 | 56 | 294 | 6.0 | 14.0 | 0.00 | 0.16 | 0.16 | 36 | 1009.3 |
| 20260509195912 | 56 | 300 | 6.0 | 16.0 | 0.00 | 0.16 | 0.16 | 37 | 1009.4 |
| 20260509195641 | 56 | 344 | 3.0 | 16.0 | 0.00 | 0.16 | 0.16 | 39 | 1009.3 |
| 20260509194911 | 56 | 256 | 4.0 | 14.0 | 0.00 | 0.16 | 0.16 | 38 | 1009.3 |
| 20260509194412 | 56 | 315 | 5.0 | 13.0 | 0.00 | 0.16 | 0.16 | 39 | 1009.1 |
| 20260509193911 | 55 | 344 | 6.0 | 17.0 | 0.00 | 0.16 | 0.16 | 39 | 1009.2 |
| 20260509193410 | 56 | 317 | 7.0 | 17.0 | 0.00 | 0.16 | 0.16 | 40 | 1009.3 |
| 20260509192911 | 55 | 349 | 7.0 | 17.0 | 0.00 | 0.16 | 0.16 | 41 | 1009.1 |
| 20260509192412 | 55 | 337 | 6.0 | 17.0 | 0.00 | 0.16 | 0.16 | 39 | 1009.1 |
| 20260509191912 | 55 | 331 | 7.0 | 17.0 | 0.00 | 0.16 | 0.16 | 40 | 1009.0 |
| 20260509191406 | 55 | 328 | 7.0 | 19.0 | 0.00 | 0.16 | 0.16 | 40 | 1009.0 |
| 20260509190900 | 55 | 331 | 6.0 | 19.0 | 0.00 | 0.16 | 0.16 | 42 | 1008.9 |
| 20260509190356 | 55 | 274 | 6.0 | 16.0 | 0.00 | 0.16 | 0.16 | 40 | 1008.9 |
| 20260509185854 | 55 | 349 | 6.0 | 16.0 | 0.00 | 0.16 | 0.16 | 42 | 1008.8 |
| 20260509185355 | 54 | 304 | 8.0 | 17.0 | 0.00 | 0.16 | 0.16 | 41 | 1008.8 |
| 20260509184855 | 54 | 311 | 9.0 | 18.0 | 0.00 | 0.16 | 0.16 | 42 | 1008.9 |
| 20260509184355 | 54 | 22 | 8.0 | 18.0 | 0.00 | 0.16 | 0.16 | 42 | 1008.8 |
| 20260509183855 | 55 | 352 | 6.0 | 16.0 | 0.00 | 0.16 | 0.16 | 40 | 1008.9 |
| 20260509183355 | 55 | 335 | 6.0 | 17.0 | 0.00 | 0.16 | 0.16 | 40 | 1008.8 |
| 20260509182855 | 54 | 131 | 7.0 | 17.0 | 0.00 | 0.16 | 0.16 | 46 | 1008.8 |
| 20260509182356 | 54 | 335 | 5.0 | 13.0 | 0.00 | 0.16 | 0.16 | 42 | 1008.8 |
| 20260509181854 | 55 | 295 | 6.0 | 14.0 | 0.00 | 0.16 | 0.16 | 40 | 1008.8 |
| 20260509181356 | 54 | 337 | 9.0 | 18.0 | 0.00 | 0.16 | 0.16 | 44 | 1008.7 |
| 20260509180850 | 53 | 338 | 8.0 | 19.0 | 0.00 | 0.16 | 0.16 | 41 | 1008.6 |
| 20260509180351 | 54 | 329 | 6.0 | 19.0 | 0.00 | 0.16 | 0.16 | 41 | 1008.7 |
| 20260509175852 | 54 | 2 | 7.0 | 13.0 | 0.00 | 0.16 | 0.16 | 44 | 1008.6 |
| 20260509175351 | 53 | 349 | 8.0 | 17.0 | 0.00 | 0.16 | 0.16 | 40 | 1008.5 |
| 20260509175124 | 53 | 309 | 7.0 | 17.0 | 0.00 | 0.16 | 0.16 | 43 | 1008.5 |
| 20260509174350 | 53 | 248 | 8.0 | 18.0 | 0.00 | 0.16 | 0.16 | 43 | 1008.5 |
| 20260509173852 | 53 | 334 | 8.0 | 18.0 | 0.00 | 0.16 | 0.16 | 43 | 1008.5 |
| 20260509173351 | 53 | 359 | 9.0 | 21.0 | 0.00 | 0.16 | 0.16 | 44 | 1008.3 |
| 20260509172852 | 53 | 340 | 11.0 | 21.0 | 0.00 | 0.16 | 0.16 | 47 | 1008.2 |
| 20260509172348 | 53 | 358 | 11.0 | 18.0 | 0.00 | 0.16 | 0.16 | 49 | 1008.2 |
| 20260509171846 | 53 | 340 | 9.0 | 18.0 | 0.00 | 0.16 | 0.16 | 44 | 1008.1 |
| 20260509171348 | 53 | 340 | 6.0 | 18.0 | 0.00 | 0.16 | 0.16 | 44 | 1008.1 |
| 20260509170846 | 53 | 1 | 9.0 | 18.0 | 0.00 | 0.16 | 0.16 | 43 | 1008.1 |
| 20260509170348 | 52 | 322 | 11.0 | 22.0 | 0.00 | 0.16 | 0.16 | 43 | 1008.1 |
| 20260509165846 | 52 | 307 | 13.0 | 22.0 | 0.00 | 0.16 | 0.16 | 42 | 1007.9 |
| 20260509165348 | 52 | 348 | 11.0 | 20.0 | 0.00 | 0.16 | 0.16 | 43 | 1007.9 |
| 20260509164846 | 53 | 346 | 8.0 | 20.0 | 0.00 | 0.16 | 0.16 | 42 | 1007.9 |
| 20260509164349 | 53 | 342 | 7.0 | 18.0 | 0.00 | 0.16 | 0.16 | 41 | 1007.7 |
| 20260509163848 | 53 | 347 | 7.0 | 17.0 | 0.00 | 0.16 | 0.16 | 44 | 1007.7 |
| 20260509163348 | 53 | 326 | 6.0 | 16.0 | 0.00 | 0.16 | 0.16 | 43 | 1007.7 |
| 20260509162848 | 53 | 345 | 6.0 | 16.0 | 0.00 | 0.16 | 0.16 | 41 | 1007.6 |
| 20260509162621 | 52 | 297 | 6.0 | 16.0 | 0.00 | 0.16 | 0.16 | 43 | 1007.5 |
| 20260509161847 | 52 | 305 | 8.0 | 22.0 | 0.00 | 0.16 | 0.16 | 42 | 1007.5 |
| 20260509161347 | 51 | 336 | 12.0 | 22.0 | 0.00 | 0.16 | 0.16 | 46 | 1007.4 |
| 20260509160848 | 51 | 355 | 12.0 | 23.0 | 0.00 | 0.16 | 0.16 | 48 | 1007.3 |
| 20260509160350 | 51 | 338 | 10.0 | 23.0 | 0.00 | 0.16 | 0.16 | 46 | 1007.3 |
| 20260509155846 | 51 | 340 | 9.0 | 19.0 | 0.00 | 0.16 | 0.16 | 42 | 1007.3 |
| 20260509155348 | 51 | 340 | 11.0 | 20.0 | 0.00 | 0.16 | 0.16 | 43 | 1007.3 |
| 20260509154846 | 51 | 328 | 10.0 | 20.0 | 0.00 | 0.16 | 0.16 | 47 | 1007.2 |
| 20260509154347 | 51 | 349 | 10.0 | 20.0 | 0.00 | 0.16 | 0.16 | 43 | 1007.2 |
| 20260509153844 | 51 | 308 | 12.0 | 20.0 | 0.00 | 0.16 | 0.16 | 48 | 1007.1 |
| 20260509153347 | 51 | 340 | 10.0 | 20.0 | 0.00 | 0.16 | 0.16 | 44 | 1007.1 |
| 20260509152845 | 51 | 342 | 10.0 | 22.0 | 0.00 | 0.16 | 0.16 | 48 | 1007.1 |
| 20260509152347 | 50 | 327 | 10.0 | 22.0 | 0.00 | 0.16 | 0.16 | 43 | 1007.0 |
| 20260509151844 | 50 | 352 | 12.0 | 25.0 | 0.00 | 0.16 | 0.16 | 45 | 1006.9 |
| 20260509151346 | 50 | 322 | 13.0 | 25.0 | 0.00 | 0.16 | 0.16 | 48 | 1006.9 |
| 20260509150844 | 50 | 326 | 14.0 | 23.0 | 0.00 | 0.16 | 0.16 | 48 | 1006.6 |
| 20260509150347 | 50 | 336 | 12.0 | 20.0 | 0.00 | 0.16 | 0.16 | 50 | 1006.6 |
| 20260509150116 | 50 | 340 | 11.0 | 25.0 | 0.00 | 0.16 | 0.16 | 48 | 1006.4 |
| 20260509145339 | 50 | 335 | 12.0 | 25.0 | 0.00 | 0.16 | 0.16 | 49 | 1006.4 |
| 20260509144836 | 50 | 305 | 10.0 | 21.0 | 0.00 | 0.16 | 0.16 | 49 | 1006.3 |
| 20260509144336 | 50 | 347 | 9.0 | 15.0 | 0.00 | 0.16 | 0.16 | 51 | 1006.3 |
| 20260509143832 | 50 | 335 | 8.0 | 16.0 | 0.00 | 0.16 | 0.16 | 48 | 1006.3 |
| 20260509143604 | 50 | 331 | 8.0 | 20.0 | 0.00 | 0.16 | 0.16 | 48 | 1006.3 |
| 20260509143104 | 49 | 302 | 9.0 | 20.0 | 0.00 | 0.16 | 0.16 | 51 | 1006.3 |
| 20260509142331 | 49 | 333 | 10.0 | 18.0 | 0.00 | 0.16 | 0.16 | 51 | 1006.2 |
| 20260509142103 | 49 | 342 | 10.0 | 16.0 | 0.00 | 0.16 | 0.16 | 56 | 1006.2 |
| 20260509141330 | 49 | 7 | 11.0 | 16.0 | 0.00 | 0.16 | 0.16 | 54 | 1006.1 |
| 20260509140830 | 49 | 349 | 10.0 | 17.0 | 0.00 | 0.16 | 0.16 | 56 | 1006.0 |
| 20260509140333 | 49 | 307 | 11.0 | 17.0 | 0.00 | 0.16 | 0.16 | 56 | 1006.0 |
| 20260509140104 | 48 | 326 | 11.0 | 17.0 | 0.00 | 0.16 | 0.16 | 60 | 1005.9 |
| 20260509135330 | 48 | 6 | 11.0 | 15.0 | 0.00 | 0.16 | 0.16 | 63 | 1005.9 |
| 20260509135101 | 48 | 0 | 10.0 | 15.0 | 0.00 | 0.16 | 0.16 | 64 | 1005.8 |
| 20260509134331 | 48 | 351 | 10.0 | 19.0 | 0.00 | 0.16 | 0.16 | 62 | 1005.7 |
| 20260509133830 | 48 | 352 | 11.0 | 19.0 | 0.00 | 0.16 | 0.16 | 64 | 1005.7 |
| 20260509133325 | 48 | 359 | 13.0 | 19.0 | 0.00 | 0.16 | 0.16 | 66 | 1005.6 |
| 20260509132819 | 48 | 334 | 13.0 | 19.0 | 0.00 | 0.16 | 0.16 | 65 | 1005.5 |
| 20260509132313 | 48 | 335 | 12.0 | 19.0 | 0.00 | 0.16 | 0.16 | 67 | 1005.6 |
| 20260509131806 | 48 | 348 | 11.0 | 18.0 | 0.00 | 0.16 | 0.16 | 71 | 1005.5 |
| 20260509131301 | 48 | 352 | 9.0 | 18.0 | 0.00 | 0.16 | 0.16 | 73 | 1005.4 |
| 20260509131026 | 47 | 340 | 8.0 | 15.0 | 0.00 | 0.16 | 0.16 | 76 | 1005.3 |
| 20260509130522 | 47 | 316 | 7.0 | 15.0 | 0.00 | 0.16 | 0.16 | 76 | 1005.2 |
| 20260509130244 | 47 | 319 | 8.0 | 18.0 | 0.00 | 0.16 | 0.16 | 77 | 1005.1 |
| 20260509125237 | 47 | 316 | 8.0 | 18.0 | 0.00 | 0.16 | 0.16 | 77 | 1005.1 |
| 20260509125001 | 47 | 7 | 6.0 | 13.0 | 0.00 | 0.16 | 0.16 | 79 | 1004.9 |
| 20260509124225 | 47 | 331 | 4.0 | 13.0 | 0.00 | 0.16 | 0.16 | 80 | 1004.8 |
| 20260509123719 | 47 | 324 | 3.0 | 9.0 | 0.00 | 0.16 | 0.16 | 82 | 1004.7 |
| 20260509123443 | 47 | 322 | 3.0 | 9.0 | 0.00 | 0.16 | 0.16 | 85 | 1004.7 |
| 20260509122714 | 46 | 310 | 3.0 | 8.0 | 0.00 | 0.16 | 0.16 | 85 | 1004.6 |
| 20260509122213 | 46 | 319 | 2.0 | 6.0 | 0.00 | 0.16 | 0.16 | 88 | 1004.5 |
| 20260509121713 | 46 | 335 | 1.0 | 6.0 | 0.00 | 0.16 | 0.16 | 89 | 1004.4 |
| 20260509121212 | 45 | 322 | 1.0 | 6.0 | 0.00 | 0.16 | 0.16 | 90 | 1004.4 |
| 20260509120717 | 45 | 328 | 0.0 | 3.0 | 0.00 | 0.16 | 0.16 | 92 | 1004.2 |
| 20260509120713 | 45 | 319 | 0.0 | 4.0 | 0.00 | 0.16 | 0.16 | 90 | 1004.3 |
| 20260509115711 | 44 | 328 | 0.0 | 3.0 | 0.00 | 0.16 | 0.16 | 93 | 1004.2 |
| 20260509115210 | 44 | 333 | 0.0 | 1.0 | 0.00 | 0.16 | 0.16 | 93 | 1004.1 |
| 20260509114708 | 44 | 322 | 0.0 | 2.0 | 0.00 | 0.16 | 0.16 | 93 | 1004.0 |
| 20260509114206 | 44 | 319 | 0.0 | 3.0 | 0.00 | 0.16 | 0.16 | 93 | 1004.0 |
| 20260509113704 | 44 | 294 | 0.0 | 3.0 | 0.00 | 0.16 | 0.16 | 94 | 1003.9 |
| 20260509113433 | 44 | 330 | 0.0 | 0.0 | 0.00 | 0.16 | 0.16 | 94 | 1003.8 |
| 20260509112700 | 44 | 330 | 0.0 | 3.0 | 0.00 | 0.16 | 0.16 | 93 | 1003.7 |
| 20260509112200 | 44 | 330 | 1.0 | 3.0 | 0.00 | 0.16 | 0.16 | 93 | 1003.5 |
| 20260509111700 | 44 | 317 | 0.0 | 3.0 | 0.00 | 0.16 | 0.16 | 94 | 1003.5 |
| 20260509111433 | 43 | 316 | 0.0 | 2.0 | 0.00 | 0.16 | 0.16 | 94 | 1003.4 |
| 20260509110700 | 43 | 334 | 0.0 | 2.0 | 0.00 | 0.16 | 0.16 | 94 | 1003.4 |
| 20260509110159 | 43 | 326 | 0.0 | 3.0 | 0.00 | 0.16 | 0.16 | 94 | 1003.3 |
| 20260509105700 | 43 | 330 | 1.0 | 4.0 | 0.00 | 0.16 | 0.16 | 94 | 1003.1 |
| 20260509105154 | 43 | 34 | 1.0 | 4.0 | 0.00 | 0.16 | 0.16 | 95 | 1003.2 |
| 20260509104648 | 43 | 316 | 1.0 | 5.0 | 0.00 | 0.16 | 0.16 | 95 | 1003.1 |
| 20260509104142 | 43 | 343 | 0.0 | 5.0 | 0.00 | 0.16 | 0.16 | 95 | 1003.1 |
| 20260509103636 | 43 | 257 | 0.0 | 1.0 | 0.00 | 0.16 | 0.16 | 95 | 1003.0 |
| 20260509103130 | 43 | 297 | 0.0 | 0.0 | 0.00 | 0.16 | 0.16 | 95 | 1002.9 |
| 20260509102624 | 43 | 314 | 0.0 | 0.0 | 0.00 | 0.16 | 0.16 | 94 | 1002.8 |
| 20260509102118 | 43 | 296 | 0.0 | 0.0 | 0.00 | 0.16 | 0.16 | 94 | 1002.7 |
| 20260509101612 | 44 | 296 | 0.0 | 0.0 | 0.00 | 0.16 | 0.16 | 94 | 1002.6 |
| 20260509101106 | 44 | 296 | 0.0 | 0.0 | 0.00 | 0.16 | 0.16 | 94 | 1002.8 |
| 20260509100831 | 44 | 296 | 0.0 | 0.0 | 0.00 | 0.16 | 0.16 | 94 | 1002.8 |
| 20260509100054 | 44 | 340 | 0.0 | 0.0 | 0.01 | 0.16 | 0.16 | 93 | 1002.8 |
| 20260509095548 | 44 | 340 | 0.0 | 0.0 | 0.01 | 0.16 | 0.16 | 93 | 1002.6 |
| 20260509095043 | 44 | 340 | 1.0 | 2.0 | 0.01 | 0.16 | 0.16 | 92 | 1002.6 |
| 20260509094537 | 45 | 353 | 2.0 | 4.0 | 0.01 | 0.16 | 0.16 | 92 | 1002.5 |
| 20260509094030 | 45 | 13 | 3.0 | 5.0 | 0.01 | 0.16 | 0.16 | 91 | 1002.4 |
| 20260509093524 | 45 | 357 | 3.0 | 5.0 | 0.01 | 0.16 | 0.16 | 91 | 1002.5 |
| 20260509093018 | 45 | 3 | 3.0 | 4.0 | 0.02 | 0.16 | 0.16 | 91 | 1002.5 |
| 20260509092512 | 46 | 20 | 3.0 | 5.0 | 0.03 | 0.16 | 0.16 | 92 | 1002.4 |
| 20260509092006 | 46 | 23 | 3.0 | 5.0 | 0.05 | 0.16 | 0.16 | 92 | 1002.3 |
| 20260509091731 | 45 | 56 | 2.0 | 3.0 | 0.07 | 0.16 | 0.16 | 93 | 1002.2 |
| 20260509090954 | 45 | 58 | 1.0 | 3.0 | 0.08 | 0.16 | 0.16 | 93 | 1002.1 |
| 20260509090448 | 45 | 23 | 0.0 | 1.0 | 0.10 | 0.16 | 0.16 | 93 | 1002.2 |
| 20260509085942 | 44 | 324 | 0.0 | 0.0 | 0.10 | 0.15 | 0.15 | 93 | 1002.2 |
| 20260509085439 | 44 | 324 | 0.0 | 0.0 | 0.12 | 0.15 | 0.15 | 93 | 1002.2 |
| 20260509085432 | 44 | 324 | 0.0 | 0.0 | 0.13 | 0.15 | 0.15 | 93 | 1002.4 |
| 20260509084424 | 45 | 324 | 0.0 | 1.0 | 0.13 | 0.15 | 0.15 | 92 | 1002.6 |
| 20260509083918 | 45 | 325 | 0.0 | 1.0 | 0.14 | 0.15 | 0.15 | 92 | 1002.6 |
| 20260509083412 | 45 | 277 | 0.0 | 0.0 | 0.15 | 0.15 | 0.15 | 92 | 1002.7 |
| 20260509082906 | 45 | 317 | 0.0 | 2.0 | 0.14 | 0.14 | 0.14 | 92 | 1002.8 |
| 20260509082400 | 45 | 316 | 0.0 | 2.0 | 0.12 | 0.12 | 0.12 | 91 | 1002.9 |
| 20260509081855 | 45 | 8 | 0.0 | 2.0 | 0.10 | 0.10 | 0.11 | 90 | 1003.0 |
| 20260509081348 | 46 | 293 | 0.0 | 2.0 | 0.09 | 0.09 | 0.09 | 90 | 1003.0 |
| 20260509080842 | 46 | 269 | 0.0 | 2.0 | 0.07 | 0.07 | 0.08 | 89 | 1002.9 |
| 20260509080608 | 46 | 300 | 0.0 | 2.0 | 0.06 | 0.06 | 0.06 | 88 | 1002.9 |
| 20260509075830 | 46 | 272 | 0.0 | 2.0 | 0.04 | 0.04 | 0.05 | 86 | 1002.8 |
| 20260509075324 | 47 | 333 | 0.0 | 3.0 | 0.03 | 0.03 | 0.03 | 84 | 1002.7 |
| 20260509074823 | 48 | 304 | 0.0 | 4.0 | 0.02 | 0.02 | 0.02 | 82 | 1002.8 |
| 20260509074320 | 48 | 332 | 0.0 | 4.0 | 0.01 | 0.01 | 0.02 | 78 | 1002.8 |
| 20260509074051 | 49 | 231 | 1.0 | 4.0 | 0.01 | 0.01 | 0.01 | 74 | 1002.7 |
| 20260509073320 | 50 | 312 | 0.0 | 4.0 | 0.00 | 0.00 | 0.00 | 69 | 1002.8 |
| 20260509072821 | 51 | 324 | 1.0 | 4.0 | 0.00 | 0.00 | 0.00 | 65 | 1002.7 |
| 20260509072321 | 52 | 309 | 1.0 | 4.0 | 0.00 | 0.00 | 0.00 | 62 | 1002.7 |
| 20260509071819 | 52 | 252 | 1.0 | 10.0 | 0.00 | 0.00 | 0.00 | 62 | 1002.6 |
| 20260509071321 | 52 | 273 | 3.0 | 10.0 | 0.00 | 0.00 | 0.00 | 58 | 1002.6 |
| 20260509070821 | 53 | 307 | 3.0 | 9.0 | 0.00 | 0.00 | 0.00 | 58 | 1002.8 |
| 20260509070317 | 53 | 314 | 3.0 | 8.0 | 0.00 | 0.00 | 0.00 | 55 | 1002.6 |
| 20260509065817 | 53 | 345 | 3.0 | 8.0 | 0.00 | 0.00 | 0.00 | 54 | 1002.6 |
| 20260509065319 | 53 | 301 | 4.0 | 10.0 | 0.00 | 0.00 | 0.00 | 54 | 1002.5 |
| 20260509064817 | 52 | 291 | 3.0 | 10.0 | 0.00 | 0.00 | 0.00 | 55 | 1002.7 |
| 20260509064319 | 52 | 331 | 1.0 | 8.0 | 0.00 | 0.00 | 0.00 | 52 | 1002.6 |
| 20260509063814 | 51 | 298 | 1.0 | 3.0 | 0.00 | 0.00 | 0.00 | 52 | 1002.8 |
| 20260509063315 | 51 | 317 | 1.0 | 6.0 | 0.00 | 0.00 | 0.00 | 51 | 1002.6 |
| 20260509062813 | 51 | 330 | 1.0 | 6.0 | 0.00 | 0.00 | 0.00 | 52 | 1002.8 |
| 20260509062313 | 50 | 347 | 0.0 | 4.0 | 0.00 | 0.00 | 0.00 | 52 | 1002.9 |
| 20260509061818 | 50 | 323 | 0.0 | 1.0 | 0.00 | 0.00 | 0.00 | 54 | 1002.3 |
| 20260509061814 | 50 | 294 | 0.0 | 1.0 | 0.00 | 0.00 | 0.00 | 53 | 1002.5 |
| 20260509060813 | 49 | 325 | 0.0 | 1.0 | 0.00 | 0.00 | 0.00 | 59 | 1002.4 |
| 20260509060313 | 49 | 290 | 0.0 | 0.0 | 0.00 | 0.00 | 0.00 | 63 | 1002.1 |
| 20260509055815 | 49 | 167 | 0.0 | 0.0 | 0.00 | 0.00 | 0.00 | 67 | 1001.9 |
| 20260509055310 | 49 | 226 | 0.0 | 0.0 | 0.00 | 0.00 | 0.00 | 60 | 1001.9 |
| 20260509054812 | 49 | 226 | 0.0 | 0.0 | 0.00 | 0.00 | 0.00 | 55 | 1002.0 |
| 20260509054540 | 49 | 226 | 0.0 | 0.0 | 0.00 | 0.00 | 0.00 | 54 | 1002.0 |
| 20260509054041 | 49 | 226 | 0.0 | 0.0 | 0.00 | 0.00 | 0.00 | 53 | 1002.0 |
| 20260509053309 | 49 | 226 | 0.0 | 0.0 | 0.00 | 0.00 | 0.00 | 53 | 1002.0 |
| 20260509052811 | 48 | 226 | 0.0 | 0.0 | 0.00 | 0.00 | 0.00 | 53 | 1001.9 |
| 20260509052311 | 48 | 226 | 0.0 | 0.0 | 0.00 | 0.00 | 0.00 | 52 | 1002.0 |
| 20260509051811 | 48 | 226 | 0.0 | 0.0 | 0.00 | 0.00 | 0.00 | 53 | 1001.7 |
| 20260509051311 | 48 | 226 | 0.0 | 0.0 | 0.00 | 0.00 | 0.00 | 52 | 1001.8 |
| 20260509050810 | 48 | 226 | 0.0 | 0.0 | 0.00 | 0.00 | 0.00 | 52 | 1001.8 |
| 20260509050310 | 48 | 226 | 0.0 | 0.0 | 0.00 | 0.00 | 0.00 | 52 | 1001.8 |
| 20260509045809 | 48 | 226 | 0.0 | 1.0 | 0.00 | 0.00 | 0.00 | 51 | 1001.7 |
| 20260509045311 | 48 | 226 | 0.0 | 1.0 | 0.00 | 0.00 | 0.00 | 51 | 1001.7 |
| 20260509044810 | 48 | 226 | 0.0 | 1.0 | 0.00 | 0.00 | 0.00 | 49 | 1001.7 |
| 20260509044310 | 49 | 221 | 0.0 | 0.0 | 0.00 | 0.00 | 0.00 | 49 | 1001.8 |
| 20260509043809 | 49 | 227 | 0.0 | 0.0 | 0.00 | 0.00 | 0.00 | 50 | 1001.9 |
| 20260509043310 | 49 | 226 | 0.0 | 0.0 | 0.00 | 0.00 | 0.00 | 49 | 1001.9 |
| 20260509042809 | 49 | 226 | 0.0 | 0.0 | 0.00 | 0.00 | 0.00 | 47 | 1001.9 |
| 20260509042311 | 50 | 223 | 0.0 | 0.0 | 0.00 | 0.00 | 0.00 | 46 | 1001.8 |
| 20260509041807 | 50 | 226 | 0.0 | 0.0 | 0.00 | 0.00 | 0.00 | 45 | 1002.0 |
| 20260509041307 | 50 | 226 | 0.0 | 0.0 | 0.00 | 0.00 | 0.00 | 44 | 1002.2 |
| 20260509041041 | 51 | 227 | 0.0 | 1.0 | 0.00 | 0.00 | 0.00 | 44 | 1002.1 |
| 20260509040536 | 51 | 236 | 0.0 | 1.0 | 0.00 | 0.00 | 0.00 | 42 | 1002.2 |
| 20260509035807 | 52 | 240 | 0.0 | 0.0 | 0.00 | 0.00 | 0.00 | 41 | 1002.2 |
| 20260509035306 | 53 | 240 | 0.0 | 0.0 | 0.00 | 0.00 | 0.00 | 40 | 1002.2 |
| 20260509034804 | 53 | 240 | 0.0 | 0.0 | 0.00 | 0.00 | 0.00 | 40 | 1002.3 |
| 20260509034301 | 53 | 240 | 0.0 | 0.0 | 0.00 | 0.00 | 0.00 | 39 | 1002.2 |
| 20260509034034 | 54 | 240 | 0.0 | 0.0 | 0.00 | 0.00 | 0.00 | 38 | 1002.2 |
| 20260509033301 | 54 | 240 | 0.0 | 2.0 | 0.00 | 0.00 | 0.00 | 38 | 1002.3 |
| 20260509032803 | 55 | 332 | 1.0 | 5.0 | 0.00 | 0.00 | 0.00 | 38 | 1002.3 |
| 20260509032534 | 55 | 325 | 2.0 | 5.0 | 0.00 | 0.00 | 0.00 | 38 | 1002.5 |
| 20260509032258 | 55 | 330 | 1.0 | 5.0 | 0.00 | 0.00 | 0.00 | 38 | 1002.5 |
| 20260509031250 | 55 | 347 | 0.0 | 4.0 | 0.00 | 0.00 | 0.00 | 38 | 1002.5 |
| 20260509030744 | 55 | 329 | 0.0 | 1.0 | 0.00 | 0.00 | 0.00 | 38 | 1002.3 |
| 20260509030238 | 56 | 333 | 0.0 | 3.0 | 0.00 | 0.00 | 0.00 | 38 | 1002.2 |
| 20260509025732 | 56 | 291 | 1.0 | 3.0 | 0.00 | 0.00 | 0.00 | 38 | 1002.2 |
| 20260509025226 | 56 | 341 | 1.0 | 5.0 | 0.00 | 0.00 | 0.00 | 37 | 1002.2 |
| 20260509024720 | 57 | 331 | 2.0 | 8.0 | 0.00 | 0.00 | 0.00 | 37 | 1002.1 |
| 20260509024214 | 57 | 326 | 2.0 | 9.0 | 0.00 | 0.00 | 0.00 | 36 | 1002.1 |
| 20260509023939 | 57 | 13 | 2.0 | 9.0 | 0.00 | 0.00 | 0.00 | 37 | 1002.1 |
| 20260509023430 | 57 | 307 | 1.0 | 6.0 | 0.00 | 0.00 | 0.00 | 36 | 1002.0 |
| 20260509023304 | 57 | 311 | 2.0 | 6.0 | 0.00 | 0.00 | 0.00 | 36 | 1002.1 |
| 20260509022150 | 57 | 349 | 1.0 | 6.0 | 0.00 | 0.00 | 0.00 | 36 | 1001.9 |
| 20260509021643 | 58 | 8 | 1.0 | 8.0 | 0.00 | 0.00 | 0.00 | 35 | 1001.8 |
| 20260509021406 | 58 | 335 | 3.0 | 9.0 | 0.00 | 0.00 | 0.00 | 35 | 1001.8 |
| 20260509020901 | 58 | 326 | 2.0 | 9.0 | 0.00 | 0.00 | 0.00 | 35 | 1001.7 |
| 20260509020123 | 58 | 330 | 2.0 | 10.0 | 0.00 | 0.00 | 0.00 | 35 | 1001.6 |
| 20260509015618 | 59 | 338 | 3.0 | 10.0 | 0.00 | 0.00 | 0.00 | 35 | 1001.5 |